3DCSDF FXMM-FDSK

Flight info

Callsign 3DCSDF
Flight time N/A
Altitude 41000
Route IXARA DCT WRV UT949 MUVAL G657 VSK
Aircraft A343/H-SDE2E3FGHIJ4J5M1RWXY/LB1D1

Departure

Time 2026-04-30 14:23
Airport Moshoeshoe I International Airport (FXMM)

Arrival

Time N/A
Airport King Mswati III International Airport (FDSK)
Time Latitude Longitude Altitude Speed Heading
2026-04-30 14:15 -29.45505 27.55824 5412 ft 0 kts 195°
2026-04-30 14:18 -29.45549 27.55793 5413 ft 10 kts 236°
2026-04-30 14:19 -29.45563 27.55658 5411 ft 3 kts 210°
2026-04-30 14:19 -29.45612 27.55643 5412 ft 11 kts 195°
2026-04-30 14:19 -29.45703 27.55614 5413 ft 16 kts 195°
2026-04-30 14:20 -29.45800 27.55585 5412 ft 13 kts 193°
2026-04-30 14:20 -29.45880 27.55562 5414 ft 13 kts 194°
2026-04-30 14:20 -29.46115 27.55489 5418 ft 20 kts 196°
2026-04-30 14:21 -29.46210 27.55435 5421 ft 10 kts 238°
2026-04-30 14:21 -29.46222 27.55349 5417 ft 12 kts 263°
2026-04-30 14:21 -29.46185 27.55257 5414 ft 4 kts 13°
2026-04-30 14:22 -29.46180 27.55259 5414 ft 0 kts 15°
2026-04-30 14:22 -29.45288 27.55543 5406 ft 143 kts 15°
2026-04-30 14:22 -29.44188 27.55888 5846 ft 168 kts 15°
2026-04-30 14:23 -29.41810 27.56613 7476 ft 195 kts 13°
2026-04-30 14:23 -29.38815 27.57565 8344 ft 254 kts 12°
2026-04-30 14:24 -29.35530 27.59684 10156 ft 285 kts 28°
2026-04-30 14:24 -29.33904 27.61107 10861 ft 305 kts 31°
2026-04-30 14:25 -29.30351 27.64493 11660 ft 355 kts 34°
2026-04-30 14:25 -29.26527 27.68255 13234 ft 370 kts 34°
2026-04-30 14:26 -29.22538 27.72125 14888 ft 379 kts 34°
2026-04-30 14:26 -29.20501 27.74084 15700 ft 385 kts 34°
2026-04-30 14:26 -29.16383 27.78049 17387 ft 392 kts 34°
2026-04-30 14:27 -29.14274 27.80045 18284 ft 395 kts 34°
2026-04-30 14:27 -29.12136 27.82063 19064 ft 400 kts 34°
2026-04-30 14:27 -29.09972 27.84111 19767 ft 406 kts 34°
2026-04-30 14:28 -29.05555 27.88287 21136 ft 416 kts 33°
2026-04-30 14:28 -29.03333 27.90391 21760 ft 420 kts 33°
2026-04-30 14:28 -29.01063 27.92538 22398 ft 425 kts 33°
2026-04-30 14:28 -28.98772 27.94705 23017 ft 429 kts 33°
2026-04-30 14:29 -28.94112 27.99113 23935 ft 445 kts 33°
2026-04-30 14:29 -28.90085 28.02913 24682 ft 454 kts 33°
2026-04-30 14:30 -28.81857 28.10684 26217 ft 470 kts 32°
2026-04-30 14:31 -28.76797 28.15454 27027 ft 475 kts 32°
2026-04-30 14:31 -28.71614 28.20325 27153 ft 489 kts 32°
2026-04-30 14:31 -28.68972 28.22807 27191 ft 491 kts 32°
2026-04-30 14:32 -28.63701 28.27765 27194 ft 490 kts 32°
2026-04-30 14:32 -28.61100 28.30209 27190 ft 490 kts 32°
2026-04-30 14:32 -28.58476 28.32673 27198 ft 489 kts 32°
2026-04-30 14:33 -28.55850 28.35136 27192 ft 488 kts 32°
2026-04-30 14:33 -28.50604 28.40050 27196 ft 487 kts 32°
2026-04-30 14:33 -28.47981 28.42503 27194 ft 487 kts 32°
2026-04-30 14:34 -28.45368 28.44943 27195 ft 486 kts 32°
2026-04-30 14:34 -28.42741 28.47394 27187 ft 486 kts 32°
2026-04-30 14:34 -28.40157 28.49802 27184 ft 486 kts 32°
2026-04-30 14:34 -28.37534 28.52246 27183 ft 486 kts 32°
2026-04-30 14:35 -28.32306 28.57114 27178 ft 487 kts 32°
2026-04-30 14:35 -28.29689 28.59550 27158 ft 486 kts 32°
2026-04-30 14:35 -28.27063 28.61993 27181 ft 487 kts 32°
2026-04-30 14:36 -28.24445 28.64425 27178 ft 487 kts 32°
2026-04-30 14:36 -28.21819 28.66864 27163 ft 487 kts 32°
2026-04-30 14:36 -28.19224 28.69271 27169 ft 487 kts 32°
2026-04-30 14:36 -28.16603 28.71701 27171 ft 487 kts 32°
2026-04-30 14:37 -28.13977 28.74135 27165 ft 487 kts 32°
2026-04-30 14:37 -28.11348 28.76572 27163 ft 487 kts 32°
2026-04-30 14:37 -28.08725 28.79000 27165 ft 487 kts 32°
2026-04-30 14:37 -28.06098 28.81431 27166 ft 487 kts 32°
2026-04-30 14:38 -28.03474 28.83856 27150 ft 487 kts 32°
2026-04-30 14:38 -28.00844 28.86286 27163 ft 487 kts 32°
2026-04-30 14:38 -27.98216 28.88712 27162 ft 487 kts 32°
2026-04-30 14:38 -27.95610 28.91106 27163 ft 486 kts 31°
2026-04-30 14:39 -27.92945 28.93476 27158 ft 486 kts 31°
2026-04-30 14:39 -27.90263 28.95817 27153 ft 485 kts 30°
2026-04-30 14:39 -27.87580 28.98144 27159 ft 485 kts 30°
2026-04-30 14:40 -27.82258 29.02767 27167 ft 485 kts 31°
2026-04-30 14:40 -27.79591 29.05119 27165 ft 487 kts 33°
2026-04-30 14:40 -27.77183 29.07857 27167 ft 498 kts 45°
2026-04-30 14:40 -27.75080 29.10996 27164 ft 501 kts 48°
2026-04-30 14:41 -27.73089 29.14251 27163 ft 503 kts 50°
2026-04-30 14:41 -27.71185 29.17519 27165 ft 504 kts 51°
2026-04-30 14:41 -27.69283 29.20845 27167 ft 505 kts 51°
2026-04-30 14:41 -27.67375 29.24189 27167 ft 504 kts 51°
2026-04-30 14:42 -27.65468 29.27513 27155 ft 504 kts 51°
2026-04-30 14:42 -27.63552 29.30829 27168 ft 503 kts 51°
2026-04-30 14:42 -27.61635 29.34128 27166 ft 503 kts 51°
2026-04-30 14:42 -27.59734 29.37383 27164 ft 503 kts 51°
2026-04-30 14:43 -27.57801 29.40687 27170 ft 503 kts 51°
2026-04-30 14:43 -27.55872 29.43978 27171 ft 503 kts 51°
2026-04-30 14:43 -27.53940 29.47271 27169 ft 503 kts 51°
2026-04-30 14:43 -27.52008 29.50563 27165 ft 503 kts 51°
2026-04-30 14:44 -27.50079 29.53848 27166 ft 503 kts 51°
2026-04-30 14:44 -27.48145 29.57141 27160 ft 503 kts 51°
2026-04-30 14:44 -27.46238 29.60384 27153 ft 503 kts 51°
2026-04-30 14:44 -27.44309 29.63662 27154 ft 503 kts 51°
2026-04-30 14:45 -27.42375 29.66946 27165 ft 503 kts 51°
2026-04-30 14:45 -27.40439 29.70232 27166 ft 503 kts 51°
2026-04-30 14:45 -27.38501 29.73519 27158 ft 503 kts 51°
2026-04-30 14:45 -27.36564 29.76800 27156 ft 503 kts 51°
2026-04-30 14:46 -27.34650 29.80041 27155 ft 503 kts 51°
2026-04-30 14:46 -27.32707 29.83327 27153 ft 503 kts 51°
2026-04-30 14:46 -27.30757 29.86624 27151 ft 502 kts 51°
2026-04-30 14:46 -27.29472 29.88794 27155 ft 502 kts 51°
2026-04-30 14:47 -27.26907 29.93125 27155 ft 502 kts 51°
2026-04-30 14:47 -27.24969 29.96393 27160 ft 502 kts 51°
2026-04-30 14:47 -27.23025 29.99670 27096 ft 501 kts 51°
2026-04-30 14:47 -27.21113 30.02898 26855 ft 490 kts 51°
2026-04-30 14:48 -27.19234 30.06069 26616 ft 484 kts 51°
2026-04-30 14:48 -27.17390 30.09173 26368 ft 482 kts 51°
2026-04-30 14:48 -27.15524 30.12306 26121 ft 481 kts 51°
2026-04-30 14:48 -27.13668 30.15420 25885 ft 479 kts 51°
2026-04-30 14:49 -27.11813 30.18531 25652 ft 477 kts 51°
2026-04-30 14:49 -27.09967 30.21626 25431 ft 475 kts 51°
2026-04-30 14:49 -27.08129 30.24704 25202 ft 473 kts 51°
2026-04-30 14:49 -27.06315 30.27743 24969 ft 472 kts 51°
2026-04-30 14:50 -27.02668 30.33842 24517 ft 469 kts 51°
2026-04-30 14:50 -27.00853 30.36877 24295 ft 467 kts 51°
2026-04-30 14:51 -26.97240 30.42911 23846 ft 464 kts 51°
2026-04-30 14:51 -26.95466 30.45871 23612 ft 462 kts 51°
2026-04-30 14:51 -26.91898 30.51818 23084 ft 457 kts 51°
2026-04-30 14:52 -26.90122 30.54776 22846 ft 455 kts 51°
2026-04-30 14:52 -26.86596 30.60641 22327 ft 451 kts 51°
2026-04-30 14:52 -26.84849 30.63544 22070 ft 448 kts 51°
2026-04-30 14:53 -26.81398 30.69274 21570 ft 444 kts 51°
2026-04-30 14:53 -26.79675 30.72131 21336 ft 442 kts 51°
2026-04-30 14:54 -26.76348 30.77892 20847 ft 442 kts 59°
2026-04-30 14:54 -26.73850 30.84173 20379 ft 441 kts 63°
2026-04-30 14:55 -26.71610 30.90538 19899 ft 437 kts 65°
2026-04-30 14:55 -26.70519 30.93698 19672 ft 434 kts 65°
2026-04-30 14:55 -26.68338 30.99967 19199 ft 431 kts 64°
2026-04-30 14:56 -26.66564 31.06293 18484 ft 431 kts 78°
2026-04-30 14:56 -26.66333 31.13072 16663 ft 438 kts 87°
2026-04-30 14:57 -26.66334 31.16479 15876 ft 436 kts 87°
2026-04-30 14:57 -26.66349 31.23070 13227 ft 412 kts 87°
2026-04-30 14:58 -26.66359 31.29315 10137 ft 392 kts 88°
2026-04-30 14:58 -26.66367 31.32210 9726 ft 349 kts 88°
2026-04-30 14:58 -26.66376 31.36336 9580 ft 309 kts 88°
2026-04-30 14:59 -26.66372 31.41207 9274 ft 312 kts 88°
2026-04-30 15:00 -26.66372 31.48430 8299 ft 307 kts 87°
2026-04-30 15:00 -26.66371 31.53184 7586 ft 303 kts 88°
2026-04-30 15:01 -26.66370 31.57857 6803 ft 300 kts 88°
2026-04-30 15:01 -26.66370 31.60153 6236 ft 290 kts 87°
2026-04-30 15:01 -26.66371 31.64460 5223 ft 267 kts 86°
2026-04-30 15:02 -26.66371 31.66480 4928 ft 250 kts 86°
2026-04-30 15:02 -26.66361 31.68349 4732 ft 229 kts 82°
2026-04-30 15:03 -26.64273 31.71715 4296 ft 151 kts 10°
2026-04-30 15:03 -26.62342 31.71915 4025 ft 138 kts
2026-04-30 15:04 -26.60173 31.71908 3988 ft 163 kts 359°
2026-04-30 15:04 -26.56774 31.71783 3987 ft 164 kts 357°
2026-04-30 15:05 -26.53409 31.71703 3425 ft 154 kts
2026-04-30 15:06 -26.51361 31.71718 3063 ft 135 kts 359°
2026-04-30 15:06 -26.49659 31.71724 3003 ft 117 kts 359°
2026-04-30 15:07 -26.48020 31.71725 2992 ft 119 kts 359°
2026-04-30 15:07 -26.46345 31.71729 2988 ft 121 kts
2026-04-30 15:08 -26.44666 31.71728 2989 ft 121 kts
2026-04-30 15:08 -26.42078 31.71733 2408 ft 122 kts
2026-04-30 15:09 -26.40376 31.71743 1822 ft 119 kts
2026-04-30 15:09 -26.38646 31.71709 1400 ft 122 kts
2026-04-30 15:10 -26.36978 31.71721 1079 ft 107 kts